TimeSAST,TemperatureF,Dew PointF,Humidity,Sea Level PressureIn,VisibilityMPH,Wind Direction,Wind SpeedMPH,Gust SpeedMPH,PrecipitationIn,Events,Conditions,WindDirDegrees,DateUTC
12:00 AM,57.2,55.4,94,30.27,-9999.0,North,24.2,-,N/A,,Clear,350,2012-10-27 22:00:00
1:00 AM,55.4,55.4,100,30.24,6.2,NNW,20.7,-,N/A,,Partly Cloudy,340,2012-10-27 23:00:00
2:00 AM,55.4,55.4,100,30.21,6.2,NNW,18.4,-,N/A,,Partly Cloudy,340,2012-10-28 00:00:00
3:00 AM,55.4,55.4,100,30.21,-9999.0,North,13.8,-,N/A,,Clear,350,2012-10-28 01:00:00
4:00 AM,55.4,55.4,100,30.24,3.7,NNE,9.2,-,N/A,,Mostly Cloudy,20,2012-10-28 02:00:00
4:30 AM,53.6,53.6,100,30.24,0.3,North,11.5,-,N/A,Fog,Fog,10,2012-10-28 02:30:00
5:00 AM,53.6,53.6,100,30.24,0.5,NNE,10.4,-,N/A,Fog,Fog,20,2012-10-28 03:00:00
5:30 AM,53.6,53.6,100,30.24,0.9,NNE,9.2,-,N/A,,Mostly Cloudy,20,2012-10-28 03:30:00
6:00 AM,53.6,53.6,100,30.27,1.1,North,12.7,-,N/A,,Mostly Cloudy,360,2012-10-28 04:00:00
6:30 AM,53.6,53.6,100,30.27,0.4,North,15.0,-,N/A,Fog,Fog,360,2012-10-28 04:30:00
7:00 AM,55.4,55.4,100,30.27,1.9,North,16.1,-,N/A,,Mostly Cloudy,360,2012-10-28 05:00:00
7:30 AM,57.2,57.2,100,30.30,3.1,North,12.7,-,N/A,,Scattered Clouds,10,2012-10-28 05:30:00
8:00 AM,59.0,59.0,100,30.30,3.1,North,12.7,-,N/A,,Scattered Clouds,10,2012-10-28 06:00:00
8:30 AM,59.0,59.0,100,30.30,6.2,North,13.8,-,N/A,,Scattered Clouds,10,2012-10-28 06:30:00
9:00 AM,62.6,59.0,88,30.30,6.2,North,12.7,-,N/A,,Partly Cloudy,360,2012-10-28 07:00:00
9:30 AM,64.4,57.2,77,30.30,6.2,North,13.8,-,N/A,,Partly Cloudy,350,2012-10-28 07:30:00
10:00 AM,66.2,57.2,73,30.30,6.2,NNW,17.3,-,N/A,,Partly Cloudy,340,2012-10-28 08:00:00
10:30 AM,68.0,57.2,68,30.30,6.2,NNW,17.3,-,N/A,,Partly Cloudy,340,2012-10-28 08:30:00
11:00 AM,69.8,59.0,68,30.27,6.2,North,16.1,-,N/A,,Partly Cloudy,350,2012-10-28 09:00:00
11:30 AM,69.8,57.2,64,30.27,6.2,North,13.8,-,N/A,,Partly Cloudy,360,2012-10-28 09:30:00
12:00 PM,69.8,59.0,68,30.27,6.2,NNW,12.7,-,N/A,,Partly Cloudy,340,2012-10-28 10:00:00
12:30 PM,71.6,57.2,60,30.27,6.2,NW,13.8,-,N/A,,Scattered Clouds,320,2012-10-28 10:30:00
1:00 PM,69.8,57.2,64,30.27,6.2,WNW,10.4,-,N/A,,Mostly Cloudy,290,2012-10-28 11:00:00
1:30 PM,71.6,57.2,60,30.27,6.2,NNW,11.5,-,N/A,,Scattered Clouds,340,2012-10-28 11:30:00
2:00 PM,73.4,59.0,61,30.24,6.2,NNW,11.5,-,N/A,,Scattered Clouds,340,2012-10-28 12:00:00
2:30 PM,69.8,57.2,64,30.24,6.2,NNW,11.5,-,N/A,,Scattered Clouds,340,2012-10-28 12:30:00
3:00 PM,69.8,57.2,64,30.24,6.2,NNW,11.5,-,N/A,,Partly Cloudy,340,2012-10-28 13:00:00
3:30 PM,69.8,57.2,64,30.24,-9999.0,NNW,12.7,-,N/A,,Clear,340,2012-10-28 13:30:00
4:00 PM,69.8,57.2,64,30.24,6.2,NNW,10.4,-,N/A,,Partly Cloudy,340,2012-10-28 14:00:00
4:30 PM,69.8,57.2,64,30.21,-9999.0,North,12.7,-,N/A,,Clear,360,2012-10-28 14:30:00
5:00 PM,69.8,57.2,64,30.21,-9999.0,North,16.1,-,N/A,,Clear,350,2012-10-28 15:00:00
5:30 PM,69.8,57.2,64,30.21,-9999.0,North,15.0,-,N/A,,Clear,350,2012-10-28 15:30:00
6:00 PM,69.8,57.2,64,30.21,-9999.0,North,16.1,-,N/A,,Clear,360,2012-10-28 16:00:00
6:30 PM,68.0,59.0,73,30.24,-9999.0,North,13.8,-,N/A,,Clear,10,2012-10-28 16:30:00
7:00 PM,66.2,59.0,78,30.24,-9999.0,North,12.7,-,N/A,,Clear,10,2012-10-28 17:00:00
7:30 PM,66.2,59.0,78,30.24,-9999.0,North,10.4,-,N/A,,Clear,10,2012-10-28 17:30:00
8:00 PM,66.2,59.0,78,30.24,-9999.0,North,13.8,-,N/A,,Clear,10,2012-10-28 18:00:00
8:30 PM,64.4,59.0,83,30.24,-9999.0,North,11.5,-,N/A,,Clear,10,2012-10-28 18:30:00
9:00 PM,64.4,59.0,83,30.27,-9999.0,North,15.0,-,N/A,,Clear,360,2012-10-28 19:00:00
9:30 PM,64.4,59.0,83,30.27,-9999.0,North,13.8,-,N/A,,Clear,10,2012-10-28 19:30:00
10:00 PM,64.4,59.0,83,30.27,-9999.0,North,15.0,-,N/A,,Clear,360,2012-10-28 20:00:00
11:00 PM,60.8,59.0,94,30.27,-9999.0,North,18.4,-,N/A,,Clear,360,2012-10-28 21:00:00